Terug naar catalogus

SL-12 DEB

ActiefUNKNOWN
NORAD 21752·DEBRIS·🇷🇺 Russia

Gelanceerd Dec 29, 1983 vanaf Baikonur Cosmodrome

Loading…

Volgende Passages (komende 24 uur)

TLE

VersSource: Space-Track

Epoch: Sep 1, 2026, 15:08 UTC

1 21752U 83127J   26244.63089387  .00014474  00000-0  35565-1 0  9995
2 21752  54.0239 333.9401 1069994 311.5917  39.7904 11.95340186303253

Volg SL-12 DEB in realtime met AllMySat

Download on the App Store